Location: Unspecified
(0.0000°N, 0.0000°E)
Time: 09:39:43
(UTC+00:00)

GONETS M 13 (M23) - Visible Passes

Search period start: 05 June 2023 00:00
Search period end: 15 June 2023 00:00
Orbit: 1484 x 1504 km, 82.5° (Epoch: 04 June)

Date Brightness Start Highest point End Pass type
(mag) Time Alt. Az. Time Alt. Az. Time Alt. Az.
05 Jun ? 05:28:38 10° ESE 05:32:40 14° E 05:36:39 10° ENE visible
05 Jun ? 19:55:06 10° NNW 20:02:41 34° W 20:10:17 10° SSW visible
06 Jun ? 19:04:47 10° N 19:13:29 74° W 19:22:11 10° S visible
07 Jun ? 18:15:51 10° NNE 18:24:18 54° E 18:32:43 10° SSE visible
07 Jun ? 20:15:19 10° NW 20:20:42 18° W 20:26:08 10° SW visible
08 Jun ? 19:23:27 10° NNW 19:31:29 42° W 19:39:34 10° SSW visible
09 Jun ? 18:33:33 10° N 18:42:18 89° W 18:51:03 10° S visible
10 Jun ? 05:13:16 10° SE 05:19:30 21° E 05:25:42 10° NE visible
10 Jun ? 19:43:03 10° NW 19:49:30 23° W 19:56:00 10° SW visible
11 Jun ? 18:51:55 10° NNW 19:00:18 53° W 19:08:43 10° SSW visible
12 Jun ? 05:29:31 10° SSE 05:37:31 39° E 05:45:30 10° NNE visible
12 Jun ? 20:05:25 10° W 20:07:32 11° W 20:09:39 10° WSW visible
13 Jun ? 04:43:17 10° SE 04:48:18 16° E 04:53:18 10° ENE visible
13 Jun ? 19:11:06 10° NW 19:18:18 30° W 19:25:34 10° SSW visible
14 Jun ? 18:20:31 10° NNW 18:29:07 65° W 18:37:44 10° S visible
